TimeCDT,TemperatureF,Dew PointF,Humidity,Sea Level PressureIn,VisibilityMPH,Wind Direction,Wind SpeedMPH,Gust SpeedMPH,PrecipitationIn,Events,Conditions,WindDirDegrees,DateUTC
12:53 AM,15.1,10.9,84,30.12,10.0,North,9.2,-,N/A,,Clear,350,2013-03-11 05:53:00
1:53 AM,12.9,9.0,84,30.10,10.0,North,5.8,-,N/A,,Clear,350,2013-03-11 06:53:00
2:53 AM,12.9,9.0,84,30.08,10.0,NNW,5.8,-,N/A,,Clear,340,2013-03-11 07:53:00
3:53 AM,12.0,8.1,84,30.05,10.0,WNW,3.5,-,N/A,,Clear,300,2013-03-11 08:53:00
4:53 AM,12.0,7.0,80,30.05,10.0,NW,4.6,-,N/A,,Clear,310,2013-03-11 09:53:00
5:53 AM,14.0,9.0,80,30.04,10.0,NW,9.2,-,N/A,,Clear,310,2013-03-11 10:53:00
6:53 AM,15.1,10.0,80,30.04,10.0,NNW,8.1,-,N/A,,Clear,330,2013-03-11 11:53:00
7:53 AM,18.0,12.0,78,30.01,10.0,NW,6.9,-,N/A,,Clear,320,2013-03-11 12:53:00
8:53 AM,19.9,12.9,74,30.01,10.0,Calm,Calm,-,N/A,,Partly Cloudy,0,2013-03-11 13:53:00
9:53 AM,25.0,15.1,66,29.99,10.0,NW,4.6,-,N/A,,Clear,320,2013-03-11 14:53:00
10:53 AM,30.9,19.0,61,29.99,10.0,West,5.8,-,N/A,,Clear,270,2013-03-11 15:53:00
11:53 AM,35.1,21.0,57,29.98,10.0,West,6.9,-,N/A,,Clear,270,2013-03-11 16:53:00
12:53 PM,39.9,21.9,49,29.95,10.0,West,11.5,-,N/A,,Clear,260,2013-03-11 17:53:00
1:53 PM,45.0,24.1,44,29.93,10.0,WNW,16.1,-,N/A,,Clear,290,2013-03-11 18:53:00
2:53 PM,48.9,28.9,46,29.91,10.0,NNW,25.3,29.9,N/A,,Clear,330,2013-03-11 19:53:00
3:53 PM,48.9,30.0,48,29.91,10.0,NNW,19.6,32.2,N/A,,Clear,330,2013-03-11 20:53:00
4:53 PM,48.9,28.0,44,29.91,10.0,NW,23.0,31.1,N/A,,Clear,320,2013-03-11 21:53:00
5:53 PM,48.0,27.0,44,29.92,10.0,NNW,24.2,31.1,N/A,,Partly Cloudy,330,2013-03-11 22:53:00
6:53 PM,45.0,27.0,49,29.96,10.0,NNW,16.1,-,N/A,,Clear,340,2013-03-11 23:53:00
7:53 PM,39.9,28.9,65,29.99,10.0,North,10.4,-,N/A,,Clear,350,2013-03-12 00:53:00
8:53 PM,37.0,28.0,70,30.02,10.0,North,6.9,-,N/A,,Clear,360,2013-03-12 01:53:00
9:53 PM,34.0,27.0,75,30.06,10.0,North,5.8,-,N/A,,Clear,360,2013-03-12 02:53:00
10:53 PM,30.9,26.1,82,30.07,10.0,Calm,Calm,-,N/A,,Clear,0,2013-03-12 03:53:00
11:53 PM,30.9,25.0,79,30.10,10.0,Calm,Calm,-,N/A,,Clear,0,2013-03-12 04:53:00